This is the latest recevied weather packets stored in our database for station/object K8BCO. If no packets are shown the sender has not sent any weather packets the latest 10 day(s).
| Time | Temp. | Humidity | Pressure | Rain* | Wind** | Luminosity | Snow |
|---|---|---|---|---|---|---|---|
| 1778108118 | 5.56° C | 55% | 1012 hPa | 0 mm | - | 89 W/m² | - |
| 1778107518 | 5.56° C | 52% | 1011.9 hPa | 0 mm | - | 105 W/m² | - |
| 1778106916 | 5.56° C | 52% | 1011.9 hPa | 0 mm | - | 112 W/m² | - |
| 1778106316 | 5.56° C | 51% | 1011.8 hPa | 0 mm | - | 106 W/m² | - |
| 1778105716 | 5.56° C | 51% | 1011.8 hPa | 0 mm | - | 111 W/m² | - |
| 1778105116 | 5.56° C | 50% | 1011.7 hPa | 0 mm | - | 109 W/m² | - |
| 1778104516 | 6.11° C | 51% | 1011.7 hPa | 0 mm | - | 164 W/m² | - |
| 1778103916 | 6.11° C | 51% | 1011.7 hPa | 0 mm | - | 184 W/m² | - |
| 1778103316 | 6.11° C | 51% | 1011.6 hPa | 0 mm | - | 183 W/m² | - |
| 1778102717 | 6.11° C | 51% | 1011.5 hPa | 0 mm | - | 219 W/m² | - |
| 1778102117 | 6.11° C | 50% | 1011.6 hPa | 0 mm | - | 178 W/m² | - |
| 1778101517 | 6.11° C | 50% | 1011.6 hPa | 0 mm | - | 172 W/m² | - |
| 1778100917 | 6.11° C | 50% | 1011.6 hPa | 0 mm | - | 216 W/m² | - |
| 1778100317 | 6.11° C | 49% | 1011.5 hPa | 0 mm | - | 278 W/m² | - |
| 1778099717 | 6.11° C | 49% | 1011.5 hPa | 0 mm | - | 299 W/m² | - |
| 1778099118 | 5.56° C | 51% | 1011.6 hPa | 0 mm | - | 277 W/m² | - |
| 1778098518 | 5.56° C | 51% | 1011.7 hPa | 0 mm | - | 224 W/m² | - |
| 1778097918 | 5.56° C | 52% | 1011.8 hPa | 0 mm | - | 199 W/m² | - |
| 1778097318 | 6.11° C | 51% | 1011.7 hPa | 0 mm | - | 219 W/m² | - |
| 1778096718 | 6.11° C | 51% | 1011.6 hPa | 0 mm | - | 294 W/m² | - |
| 1778096116 | 6.11° C | 51% | 1011.6 hPa | 0 mm | - | 396 W/m² | - |
| 1778095515 | 5.56° C | 52% | 1011.6 hPa | 0 mm | - | 295 W/m² | - |
| 1778094916 | 5.56° C | 53% | 1011.7 hPa | 0 mm | - | 282 W/m² | - |
| 1778094316 | 6.11° C | 51% | 1011.6 hPa | 0 mm | - | 267 W/m² | - |
| 1778093717 | 6.11° C | 50% | 1011.6 hPa | 0 mm | - | 381 W/m² | - |
* Rain latest hour (hover to see other rain measurements)
** Current wind speed in m/s (hover to see current wind gust speed)